[[[{"header":{"parameterUnit":"kt","parameterCategory":2,"dx":1,"dy":1,"la1":30.253999710083008,"la2":30.299108505249023,"lo1":-89.0895004272461,"lo2":-89.04439544677734,"nx":28,"ny":28,"refTime":"2022-10-29T21:00:00:Z","depth":"0","parameterNumber":2,"parameterNumberName":"U-component_of_CURRENTS"},"data":[0.8189,0.8209,0.8278,0.8251,0.8262,0.8137,0.8131,0.8103,0.8241,0.8288,0.8333,0.8585,0.8893,0.9151,0.8933,0.8721,0.8026,0.7743,0.7783,0.8415,0.8466,0.8515,0.8224,0.8021,0.802,0.6132,0.6118,0.6108,0.8282,0.8334,0.8401,0.8391,0.8403,0.8469,0.8562,0.8523,0.8659,0.8964,0.9239,0.9423,0.963,0.9724,0.9761,0.9558,0.8958,0.9278,0.8353,0.8168,0.9283,0.9012,0.8974,0.8974,0.8974,0.8974,0.8975,0.8975,0.8354,0.8401,0.837,0.8459,0.8507,0.8546,0.8573,0.8732,0.8944,0.9142,0.9527,0.9772,1.0046,1.0609,1.0656,1.0385,1.0289,1.0004,0.9961,0.9561,0.907,1.0337,1.0627,1.0633,1.0637,1.0642,1.0645,0,0.8323,0.8324,0.8371,0.8418,0.8479,0.8583,0.8725,0.8835,0.903,0.9259,0.9561,0.9828,1.0337,1.0461,1.094,1.0996,1.0274,1.0796,1.056,0.9369,0.8868,0.8616,0.9767,0.9993,0.9996,0.9997,0.9998,0.9999,0.8233,0.8262,0.8331,0.835,0.8417,0.8553,0.8643,0.8831,0.8948,0.9276,0.9383,0.9777,1.0034,1.0622,1.0717,1.1039,1.0574,1.0828,1.0371,1.0159,1.0105,0.9652,0.9389,1.0022,1.002,1.0017,1.0015,0,0.8158,0.818,0.827,0.8361,0.841,0.8509,0.8705,0.8806,0.8975,0.9168,0.9245,0.9501,0.9808,1.0011,1.0275,1.0307,1.0291,1.0664,1.0246,1.0252,1.0128,1.0038,0.9826,0.9544,1.101,1.1017,1.1023,0,0.809,0.8176,0.8252,0.8301,0.8413,0.8494,0.8629,0.8744,0.8918,0.9048,0.9135,0.9293,0.9374,0.9634,0.9702,1.0025,1.0007,1.0021,1.009,0.9639,0.9618,0.94,0.9285,0.9847,0.9842,0.9838,0.9834,0,0.8076,0.8189,0.8251,0.8298,0.8438,0.8492,0.8575,0.8712,0.8821,0.8978,0.9087,0.9165,0.9281,0.9366,0.9541,0.9389,0.9855,0.9655,0.9924,0.9943,0.96,0.9582,0.9528,0.9828,0.9827,0.9826,0.9824,0,0.8107,0.817,0.826,0.8363,0.8401,0.8476,0.8614,0.8696,0.8833,0.8885,0.8934,0.8974,0.9073,0.8971,0.9194,0.9078,0.9194,0.9271,0.9293,0.9399,0.9392,0.9462,0.9601,0.933,0.9588,0.9583,0.9579,0,0.8066,0.8182,0.8228,0.8324,0.8386,0.847,0.8544,0.8637,0.8698,0.8802,0.8794,0.8862,0.8768,0.8808,0.8829,0.8933,0.9052,0.8839,0.9176,0.9189,0.9343,0.9526,0.9066,0.9536,0.9522,0.9528,0.9532,0,0.8046,0.8161,0.8172,0.8222,0.8344,0.8414,0.849,0.8581,0.8652,0.8688,0.8762,0.8728,0.8735,0.8723,0.8714,0.8761,0.8975,0.8764,0.8766,0.9046,0.9295,0.9437,0.9491,0.8913,0.8916,0.8919,0.9487,0,0.8078,0.8118,0.8149,0.8258,0.832,0.8386,0.8479,0.8543,0.8569,0.8614,0.865,0.8642,0.8651,0.8638,0.8619,0.8684,0.8772,0.8681,0.8683,0.872,0.897,0.9006,0.8558,0.8556,0.8555,0.8554,0,0,0.8026,0.8081,0.8141,0.8217,0.8263,0.8342,0.8403,0.8464,0.8551,0.8571,0.8556,0.8579,0.8562,0.859,0.8585,0.8572,0.8685,0.8587,0.8672,0.8685,0.8697,0.8937,0.8973,0.8551,0.8551,0.855,0.855,0,0.804,0.808,0.8117,0.8189,0.8288,0.834,0.8363,0.8461,0.8491,0.8542,0.8534,0.8537,0.855,0.8548,0.8541,0.8557,0.8642,0.8545,0.8585,0.8658,0.8673,0.8686,0.8925,0.8958,0.8547,0.8547,0.8547,0,0.8043,0.8096,0.811,0.8208,0.8264,0.8337,0.8351,0.8424,0.8474,0.8465,0.8518,0.8512,0.8491,0.8513,0.8516,0.8504,0.8625,0.8519,0.8523,0.8525,0.8599,0.8615,0.8628,0.8463,0.8464,0.8464,0,0,0.8062,0.8093,0.8185,0.8218,0.8257,0.833,0.8369,0.8411,0.8454,0.8471,0.849,0.8485,0.8485,0.8492,0.8493,0.8516,0.8585,0.8515,0.8518,0.8522,0.8526,0.86,0.8614,0.8465,0.8465,0.8465,0,0,0.8067,0.8149,0.8169,0.8214,0.8288,0.8371,0.84,0.8433,0.8469,0.8464,0.8469,0.8472,0.8491,0.8473,0.8489,0.849,0.8463,0.8461,0.8535,0.8539,0.8543,0.8553,0.8481,0,0,0,0,0,0.8118,0.814,0.8157,0.8174,0.8277,0.8364,0.838,0.8424,0.8422,0.8453,0.8458,0.8455,0.8468,0.8484,0.8489,0.8509,0.8481,0.8478,0.8476,0.8574,0.8579,0.8582,0,0,0,0,0,0,0.8125,0.8145,0.8157,0.8237,0.8262,0.8362,0.8358,0.8371,0.8419,0.8422,0.8455,0.8456,0.8459,0.8481,0.8486,0.8505,0.8479,0.848,0.8477,0.8475,0.8575,0.8579,0.8583,0,0,0,0,0,0.8131,0.8147,0.8294,0.8238,0.8259,0.8328,0.8356,0.8368,0.8408,0.8429,0.8433,0.8438,0.846,0.8464,0.8484,0.8503,0.8476,0.8477,0.8478,0.8476,0.8475,0.8577,0,0,0,0,0,0,0.8136,0.8162,0.83,0.8309,0.8223,0.8324,0.8339,0.8364,0.8411,0.8418,0.841,0.841,0.846,0.8463,0.8467,0.8502,0.8473,0.8475,0.8476,0.8477,0.8475,0.8474,0,0,0,0,0,0,0.8154,0.8169,0.8305,0.8283,0.829,0.832,0.8333,0.8356,0.8409,0.8388,0.8392,0.8409,0.8431,0.8463,0.8466,0.8502,0.8471,0.8472,0.8474,0.8474,0.8476,0.8475,0,0,0,0,0,0,0.8162,0.8174,0.8281,0.8286,0.8292,0.8397,0.8339,0.8426,0.8439,0.8384,0.8436,0.8435,0.8429,0.8434,0.8465,0.8501,0.8502,0.8471,0.8472,0.8473,0.8473,0,0,0,0,0,0,0,0.8168,0.8065,0.8247,0.8289,0.8294,0.8392,0.8395,0.8397,0.8439,0.8438,0.8436,0.8435,0.846,0.8462,0.8464,0.85,0,0,0.847,0.8471,0,0,0,0,0,0,0,0,0.8062,0.8064,0.8247,0.8249,0.8251,0.8393,0.8395,0.8397,0.8439,0.8438,0.8437,0.8436,0.8461,0.8462,0.8464,0,0,0,0,0,0,0,0,0,0,0,0,0,0,0,0.8247,0.8249,0,0.8393,0.8395,0.8396,0.8438,0.8438,0.8437,0.8436,0.8461,0.8462,0.8464,0,0,0,0,0,0,0,0,0,0,0,0,0,0,0,0,0,0,0,0,0,0,0,0,0,0,0,0,0,0,0,0,0,0,0,0,0,0,0,0,0,0,0,0,0,0,0,0,0,0,0,0,0,0,0,0,0,0,0,0,0,0,0,0,0,0,0,0,0]}],[{"header":{"parameterUnit":"kt","parameterCategory":2,"dx":1,"dy":1,"la1":30.253999710083008,"la2":30.299108505249023,"lo1":-89.0895004272461,"lo2":-89.04439544677734,"nx":28,"ny":28,"refTime":"2022-10-29T21:00:00:Z","depth":"0","parameterNumber":3,"parameterNumberName":"V-component_of_CURRENTS"},"data":[-0.0896,-0.0609,-0.0478,0.0091,0.0396,0.0941,0.1264,0.1904,0.2549,0.3646,0.434,0.4764,0.4043,0.0953,-0.1249,-0.1787,-0.2667,-0.2646,-0.3137,-0.2761,-0.2749,-0.2738,-0.2857,-0.2879,-0.2881,-0.4072,-0.4084,-0.4093,-0.1035,-0.0859,-0.0533,-0.0103,0.0255,0.0385,0.0892,0.1259,0.1881,0.2632,0.3166,0.3501,0.2686,0.1669,0.014,-0.0805,-0.1357,-0.1412,-0.198,-0.2163,-0.1187,-0.1222,-0.0897,-0.0897,-0.0896,-0.0896,-0.0895,-0.0895,-0.122,-0.1051,-0.0753,-0.0416,-0.0088,0.0291,0.0578,0.0929,0.1364,0.1937,0.2072,0.2657,0.2084,0.146,0.0794,-0.0375,-0.0513,-0.0886,-0.1202,-0.1413,-0.1646,-0.0448,-0.0019,-0.002,-0.0022,-0.0023,-0.0024,0,-0.1345,-0.1211,-0.1025,-0.0649,-0.0376,-0.0086,0.0183,0.0393,0.0553,0.0852,0.1289,0.1485,0.135,0.1063,0.0544,0.0138,-0.1209,-0.0719,-0.1323,-0.1806,-0.2,-0.2243,-0.133,-0.0955,-0.0962,-0.0967,-0.0971,-0.0974,-0.1442,-0.1329,-0.1015,-0.0825,-0.0728,-0.051,-0.0336,-0.0269,-0.0108,0.0157,0.0326,0.0421,0.0567,0.0285,-0.0273,-0.0675,-0.1301,-0.0884,-0.121,-0.1684,-0.2033,-0.2293,-0.2492,-0.1049,-0.104,-0.1032,-0.1026,0,-0.1453,-0.1384,-0.1179,-0.1019,-0.0947,-0.0806,-0.0576,-0.0471,-0.0481,-0.0261,-0.0234,-0.0363,-0.0385,-0.0826,-0.112,-0.1455,-0.1824,-0.1616,-0.1466,-0.145,-0.1807,-0.211,-0.2157,-0.2362,-0.1375,-0.1366,-0.1358,0,-0.1489,-0.1395,-0.127,-0.1205,-0.1007,-0.1036,-0.0876,-0.0938,-0.0922,-0.0771,-0.1104,-0.0961,-0.1479,-0.1544,-0.1912,-0.1933,-0.2028,-0.2132,-0.2132,-0.2098,-0.207,-0.2553,-0.287,-0.247,-0.2472,-0.2474,-0.2476,0,-0.1643,-0.1473,-0.1344,-0.1317,-0.1276,-0.1217,-0.1209,-0.1337,-0.1306,-0.1435,-0.1368,-0.1635,-0.1607,-0.1879,-0.2133,-0.2297,-0.2214,-0.2475,-0.2266,-0.2245,-0.2184,-0.2159,-0.239,-0.2478,-0.2479,-0.248,-0.248,0,-0.1757,-0.1683,-0.1511,-0.1439,-0.1426,-0.1373,-0.1448,-0.1468,-0.1642,-0.1736,-0.186,-0.2034,-0.2141,-0.2344,-0.2497,-0.2547,-0.2636,-0.2734,-0.2729,-0.2514,-0.2611,-0.2255,-0.2013,-0.2546,-0.2683,-0.2685,-0.2688,0,-0.196,-0.1798,-0.1821,-0.1687,-0.1644,-0.1809,-0.1815,-0.1941,-0.2097,-0.2151,-0.2376,-0.2406,-0.2664,-0.2664,-0.2758,-0.2887,-0.2857,-0.2962,-0.2945,-0.2942,-0.2629,-0.2431,-0.2336,-0.2074,-0.272,-0.2717,-0.2714,0,-0.2163,-0.2122,-0.2108,-0.2066,-0.2149,-0.2155,-0.2193,-0.2296,-0.231,-0.2487,-0.2465,-0.2664,-0.2776,-0.2843,-0.2984,-0.3017,-0.2909,-0.3114,-0.3119,-0.2937,-0.2805,-0.2513,-0.2463,-0.3002,-0.2999,-0.2997,-0.274,0,-0.2324,-0.231,-0.2261,-0.2276,-0.2305,-0.2282,-0.2441,-0.2521,-0.2647,-0.2743,-0.2827,-0.2991,-0.3069,-0.3133,-0.3236,-0.3208,-0.3199,-0.3311,-0.3324,-0.3275,-0.3174,-0.3153,-0.3456,-0.346,-0.3463,-0.3466,0,0,-0.2538,-0.2507,-0.2645,-0.2581,-0.258,-0.2792,-0.2717,-0.2821,-0.2933,-0.2972,-0.304,-0.3194,-0.3301,-0.3323,-0.3332,-0.3418,-0.3387,-0.3367,-0.3338,-0.3323,-0.331,-0.3208,-0.3185,-0.3471,-0.3472,-0.3473,-0.3474,0,-0.2598,-0.273,-0.2663,-0.2706,-0.2764,-0.2843,-0.2853,-0.2942,-0.2999,-0.3067,-0.3155,-0.3236,-0.335,-0.3397,-0.3443,-0.3456,-0.3437,-0.3488,-0.3364,-0.3364,-0.3345,-0.3329,-0.3225,-0.3201,-0.3481,-0.3481,-0.3481,0,-0.2757,-0.2808,-0.2814,-0.2912,-0.2948,-0.2936,-0.3049,-0.3056,-0.306,-0.3203,-0.322,-0.3317,-0.343,-0.3462,-0.3493,-0.3517,-0.3481,-0.3551,-0.3541,-0.3505,-0.3506,-0.3486,-0.3469,-0.3674,-0.3674,-0.3673,0,0,-0.2802,-0.281,-0.2926,-0.2934,-0.2961,-0.3044,-0.3062,-0.3099,-0.3165,-0.3193,-0.3262,-0.3348,-0.3414,-0.3449,-0.3517,-0.3571,-0.3565,-0.3561,-0.3553,-0.3544,-0.3503,-0.3503,-0.3486,-0.3671,-0.3671,-0.3671,0,0,-0.28,-0.2892,-0.2963,-0.2988,-0.3048,-0.3105,-0.3081,-0.3148,-0.3218,-0.3214,-0.3303,-0.3323,-0.3372,-0.3453,-0.3416,-0.3485,-0.3542,-0.3552,-0.3374,-0.3365,-0.3357,-0.3276,-0.3418,0,0,0,0,0,-0.2896,-0.2886,-0.2952,-0.2969,-0.3069,-0.3101,-0.3111,-0.3141,-0.317,-0.3171,-0.3255,-0.3264,-0.3446,-0.3414,-0.3435,-0.3382,-0.3641,-0.3646,-0.3651,-0.3439,-0.3428,-0.3419,0,0,0,0,0,0,-0.2903,-0.2926,-0.295,-0.3013,-0.3034,-0.3102,-0.3126,-0.3136,-0.3168,-0.317,-0.3253,-0.3267,-0.3303,-0.3406,-0.3424,-0.3371,-0.3412,-0.3643,-0.3647,-0.3651,-0.3436,-0.3427,-0.3419,0,0,0,0,0,-0.2908,-0.2927,-0.3085,-0.3012,-0.3031,-0.3076,-0.3126,-0.3134,-0.3166,-0.3228,-0.3242,-0.3184,-0.3303,-0.3322,-0.3417,-0.336,-0.3399,-0.3406,-0.3646,-0.3649,-0.3652,-0.3431,0,0,0,0,0,0,-0.2913,-0.2938,-0.3089,-0.3094,-0.2998,-0.3072,-0.3087,-0.3131,-0.3224,-0.3236,-0.3161,-0.3161,-0.3303,-0.3318,-0.3333,-0.3351,-0.3389,-0.3396,-0.34,-0.3648,-0.3651,-0.3654,0,0,0,0,0,0,-0.2928,-0.2943,-0.3092,-0.3074,-0.3078,-0.3067,-0.3081,-0.3155,-0.3226,-0.3153,-0.3155,-0.316,-0.3288,-0.3315,-0.3327,-0.3441,-0.3381,-0.3388,-0.3392,-0.3395,-0.3651,-0.3653,0,0,0,0,0,0,-0.2934,-0.2948,-0.3073,-0.3076,-0.308,-0.3149,-0.3135,-0.3244,-0.3186,-0.315,-0.3184,-0.3182,-0.3285,-0.3297,-0.3322,-0.3431,-0.3438,-0.3381,-0.3386,-0.3389,-0.3391,0,0,0,0,0,0,0,-0.294,-0.2849,-0.3049,-0.3078,-0.3081,-0.3146,-0.3148,-0.315,-0.3186,-0.3185,-0.3184,-0.3183,-0.3343,-0.335,-0.3358,-0.3424,0,0,-0.338,-0.3384,0,0,0,0,0,0,0,0,-0.2843,-0.2847,-0.305,-0.305,-0.3051,-0.3146,-0.3148,-0.315,-0.3186,-0.3185,-0.3184,-0.3183,-0.3345,-0.3351,-0.3357,0,0,0,0,0,0,0,0,0,0,0,0,0,0,0,-0.305,-0.305,0,-0.3147,-0.3148,-0.3149,-0.3186,-0.3185,-0.3184,-0.3184,-0.3347,-0.3352,-0.3356,0,0,0,0,0,0,0,0,0,0,0,0,0,0,0,0,0,0,0,0,0,0,0,0,0,0,0,0,0,0,0,0,0,0,0,0,0,0,0,0,0,0,0,0,0,0,0,0,0,0,0,0,0,0,0,0,0,0,0,0,0,0,0,0,0,0,0,0,0]}]],[[{"header":{"parameterUnit":"kt","parameterCategory":2,"dx":1,"dy":1,"la1":30.253999710083008,"la2":30.299108505249023,"lo1":-89.0895004272461,"lo2":-89.04439544677734,"nx":28,"ny":28,"refTime":"2022-10-29T21:00:00:Z","depth":"2","parameterNumber":2,"parameterNumberName":"U-component_of_CURRENTS"},"data":[0.528,0.5258,0.5215,0.5205,0.5291,0.5185,0.5156,0.5047,0.512,0.4873,0.4915,0.5353,0.573,0.4999,0.4994,0.4717,0.5026,0.454,0.626,0.6142,0.6224,0.6538,0.6198,0,0,0,0,0,0.5251,0.5279,0.5435,0.5522,0.5606,0.5847,0.5952,0.5851,0.5811,0.6012,0.6127,0.5712,0.5702,0.5987,0.5807,0.5821,0.5713,0.5584,0.5394,0.5504,0.5599,0.529,0.454,0.4532,0.4525,0.4518,0,0,0.5296,0.5328,0.5535,0.5683,0.5903,0.5959,0.6031,0.6291,0.6466,0.6586,0.6922,0.6894,0.7125,0.71,0.6939,0.6908,0.7449,0.7089,0.7118,0.7161,0.6942,0.6794,0.6625,0.6632,0.6638,0.6644,0.6649,0,0.5276,0.5425,0.5571,0.5774,0.5987,0.6205,0.6538,0.6659,0.704,0.7241,0.7437,0.7534,0.7901,0.7744,0.7896,0.7838,0.7843,0.7679,0.8564,0.723,0.7084,0.7029,0.7051,0.7007,0.7017,0.7025,0.703,0.7034,0.5358,0.5397,0.5723,0.5843,0.6025,0.6326,0.6508,0.6935,0.714,0.756,0.7663,0.8014,0.8109,0.8392,0.8411,0.8486,0.8622,0.7904,0.7703,0.8372,0.8322,0.83,0.8278,0.7141,0.7127,0.7116,0.7107,0,0.5437,0.5588,0.5719,0.6022,0.6147,0.6317,0.6824,0.6969,0.7284,0.7548,0.7648,0.8005,0.8226,0.8402,0.8618,0.8534,0.8597,0.8572,0.7952,0.7846,0.8316,0.8289,0.8521,0.8516,0.8513,0.8509,0.8507,0,0.5625,0.5712,0.5966,0.6032,0.624,0.6458,0.6739,0.6944,0.7288,0.7479,0.7693,0.7855,0.8108,0.828,0.8333,0.8421,0.8562,0.8369,0.834,0.7825,0.776,0.8275,0.8236,0.8595,0.8593,0.8591,0.859,0,0.5661,0.5906,0.6035,0.6121,0.6385,0.6543,0.6748,0.7029,0.7246,0.7497,0.7651,0.7851,0.8014,0.8131,0.8246,0.8199,0.848,0.8404,0.8287,0.8273,0.7742,0.7669,0.8588,0.8588,0.8587,0.8586,0.8586,0,0.5811,0.5952,0.6116,0.6298,0.6379,0.654,0.6834,0.7013,0.7281,0.7429,0.7603,0.7663,0.7884,0.7846,0.8083,0.7994,0.8063,0.8099,0.8106,0.7833,0.7689,0.7283,0.7486,0.8126,0.8122,0.8118,0.8115,0,0.573,0.5959,0.6131,0.6296,0.6363,0.6563,0.6754,0.6934,0.7117,0.7309,0.7425,0.7543,0.7532,0.7579,0.7732,0.774,0.7902,0.7756,0.7827,0.7829,0.7572,0.789,0.731,0.7453,0.8066,0.8071,0.8075,0,0.565,0.5911,0.595,0.6026,0.6313,0.6397,0.6633,0.6807,0.6919,0.7122,0.7279,0.7404,0.7418,0.7428,0.7407,0.755,0.7813,0.7498,0.7497,0.7526,0.8042,0.7844,0.7858,0.7791,0.7797,0.7802,0.8035,0,0.5705,0.5782,0.5877,0.6103,0.6225,0.6336,0.6484,0.6623,0.6752,0.6831,0.6985,0.7029,0.7094,0.7149,0.7113,0.7303,0.7257,0.7178,0.7051,0.7317,0.7387,0.742,0.6964,0.6958,0.6954,0.695,0,0,0.5541,0.5682,0.5789,0.5949,0.6042,0.6122,0.6225,0.6348,0.6463,0.6534,0.6545,0.6692,0.6674,0.6766,0.6889,0.6895,0.6926,0.6864,0.7203,0.7232,0.7258,0.7337,0.7373,0.6943,0.6941,0.6939,0.6938,0,0.5565,0.5672,0.5756,0.5855,0.6015,0.6075,0.6105,0.622,0.6297,0.646,0.6378,0.6445,0.654,0.6539,0.6541,0.6821,0.6705,0.6846,0.7066,0.7163,0.7198,0.7228,0.7313,0.7348,0.6927,0.6928,0.6928,0,0.552,0.563,0.563,0.5771,0.5872,0.5971,0.5919,0.6027,0.6119,0.6,0.6189,0.6156,0.6127,0.6263,0.6306,0.6262,0.6554,0.6443,0.6469,0.6438,0.6525,0.6568,0.6606,0.61,0.6097,0.6094,0,0,0.5556,0.5633,0.568,0.5759,0.5819,0.5894,0.5953,0.5956,0.6001,0.6032,0.6035,0.6063,0.6068,0.6103,0.6093,0.6254,0.6225,0.6344,0.6383,0.6415,0.6402,0.6498,0.6541,0.6085,0.6084,0.6084,0,0,0.5519,0.558,0.5611,0.5683,0.5753,0.5816,0.5914,0.5912,0.5988,0.6001,0.5907,0.589,0.5959,0.5946,0.5829,0.6073,0.5914,0.5937,0.6082,0.6129,0.6167,0.6137,0.5638,0,0,0,0,0,0.552,0.5576,0.5604,0.5622,0.5747,0.5828,0.5854,0.5871,0.5868,0.592,0.5933,0.58,0.5895,0.5787,0.5781,0.5895,0.5956,0.5979,0.6001,0.6217,0.6268,0.6312,0,0,0,0,0,0,0.5526,0.5544,0.5602,0.566,0.5689,0.5826,0.5769,0.5781,0.5859,0.5851,0.5822,0.5799,0.5724,0.5779,0.5777,0.5888,0.5639,0.5965,0.5985,0.6002,0.6235,0.6277,0.6313,0,0,0,0,0,0.5531,0.5546,0.5721,0.5663,0.5688,0.5734,0.5764,0.5772,0.5853,0.5768,0.5753,0.5852,0.5731,0.5719,0.5777,0.5894,0.5639,0.5639,0.5978,0.5993,0.6007,0.6255,0,0,0,0,0,0,0.5535,0.56,0.573,0.5742,0.5592,0.5727,0.5741,0.5765,0.5762,0.5754,0.5784,0.5777,0.5737,0.5726,0.5718,0.5905,0.564,0.564,0.5639,0.5989,0.6001,0.6012,0,0,0,0,0,0,0.5591,0.561,0.5737,0.5646,0.5648,0.572,0.5732,0.5746,0.5754,0.5779,0.5775,0.5779,0.5654,0.5732,0.5725,0.5758,0.5641,0.564,0.564,0.564,0.5999,0.6008,0,0,0,0,0,0,0.5601,0.5617,0.5644,0.5646,0.5648,0.5794,0.5727,0.5806,0.5832,0.5775,0.5815,0.5807,0.5655,0.5653,0.5731,0.5768,0.5761,0.5641,0.564,0.564,0.564,0,0,0,0,0,0,0,0.5609,0.5474,0.5642,0.5646,0.5648,0.5846,0.5851,0.5856,0.583,0.5823,0.5817,0.581,0.5643,0.5643,0.5642,0.5776,0,0,0.5641,0.564,0,0,0,0,0,0,0,0,0.547,0.5473,0.5642,0.5643,0.5645,0.5847,0.5851,0.5855,0.5829,0.5824,0.5818,0.5813,0.5643,0.5643,0.5642,0,0,0,0,0,0,0,0,0,0,0,0,0,0,0,0.5642,0.5643,0,0.5848,0.5851,0.5854,0.5828,0.5824,0.5819,0.5815,0.5643,0.5643,0.5642,0,0,0,0,0,0,0,0,0,0,0,0,0,0,0,0,0,0,0,0,0,0,0,0,0,0,0,0,0,0,0,0,0,0,0,0,0,0,0,0,0,0,0,0,0,0,0,0,0,0,0,0,0,0,0,0,0,0,0,0,0,0,0,0,0,0,0,0,0]}],[{"header":{"parameterUnit":"kt","parameterCategory":2,"dx":1,"dy":1,"la1":30.253999710083008,"la2":30.299108505249023,"lo1":-89.0895004272461,"lo2":-89.04439544677734,"nx":28,"ny":28,"refTime":"2022-10-29T21:00:00:Z","depth":"2","parameterNumber":3,"parameterNumberName":"V-component_of_CURRENTS"},"data":[0.2227,0.2455,0.2568,0.2996,0.3182,0.3506,0.3724,0.3977,0.4059,0.4022,0.3777,0.347,0.2465,0.1589,0.0649,-0.0022,-0.012,-0.0152,-0.0011,0.0279,0.03,-0.0343,-0.0227,0,0,0,0,0,0.2184,0.231,0.2506,0.2754,0.3031,0.3072,0.3452,0.3637,0.3906,0.3936,0.3854,0.3064,0.2273,0.1414,0.0206,-0.0501,-0.0527,-0.07,-0.0564,-0.0548,-0.0535,-0.0476,-0.0684,-0.0686,-0.0688,-0.069,0,0,0.2085,0.2182,0.2301,0.2483,0.2669,0.2978,0.3165,0.337,0.3595,0.3671,0.3547,0.3283,0.2525,0.128,0.0552,-0.0249,-0.0222,-0.0491,-0.048,-0.047,-0.0413,-0.0378,-0.06,-0.0601,-0.0601,-0.0602,-0.0602,0,0.197,0.1953,0.208,0.224,0.2356,0.2569,0.2718,0.2887,0.3004,0.3044,0.3119,0.2976,0.2264,0.1596,0.0668,0.0262,-0.0122,-0.0272,-0.0191,-0.0152,-0.0109,-0.0151,-0.0134,-0.029,-0.0289,-0.0288,-0.0288,-0.0287,0.1743,0.183,0.191,0.199,0.1983,0.2108,0.2262,0.2273,0.2432,0.247,0.2572,0.2282,0.2154,0.1442,0.0788,0.0155,0.011,-0.0221,-0.0277,-0.0181,-0.023,-0.021,-0.0192,-0.0275,-0.0277,-0.0278,-0.0279,0,0.1576,0.1576,0.174,0.1775,0.1782,0.189,0.1981,0.2136,0.2091,0.224,0.221,0.1975,0.1714,0.1266,0.0849,0.0491,0.0147,-0.0013,0.0099,0.0043,-0.0178,-0.0164,-0.0369,-0.0373,-0.0377,-0.038,-0.0383,0,0.132,0.1425,0.1425,0.1505,0.1657,0.1663,0.1821,0.1861,0.1864,0.1978,0.1688,0.1724,0.1284,0.1067,0.075,0.0387,0.0428,0.0084,0.0013,0.0088,0.0087,0.0155,0.0161,0.0119,0.0121,0.0122,0.0124,0,0.1163,0.1219,0.1357,0.1372,0.1491,0.1545,0.1593,0.1619,0.1725,0.1622,0.1615,0.1355,0.1272,0.0994,0.0705,0.0683,0.043,0.0362,0.0084,0.0076,0.0055,0.0049,0.0126,0.0126,0.0126,0.0127,0.0128,0,0.1,0.1022,0.1172,0.1318,0.1345,0.1371,0.1508,0.1595,0.1545,0.1518,0.1359,0.1214,0.1058,0.0947,0.0684,0.0747,0.0535,0.043,0.0417,0.031,0.0241,0.0101,0.0082,0.025,0.0252,0.0254,0.0256,0,0.0941,0.1001,0.0954,0.1078,0.1184,0.1152,0.1269,0.1275,0.1261,0.125,0.1108,0.1081,0.0946,0.0898,0.0769,0.067,0.0531,0.0625,0.0349,0.0341,0.0254,0.0247,0.0308,0.0116,0.028,0.0277,0.0275,0,0.0901,0.0913,0.0893,0.0965,0.0892,0.092,0.1015,0.1069,0.1123,0.1031,0.1052,0.1019,0.0849,0.084,0.0751,0.0662,0.0563,0.0579,0.0572,0.0471,0.036,0.0287,0.0263,0.0515,0.0513,0.0512,0.0295,0,0.0842,0.0883,0.0864,0.0869,0.0855,0.0838,0.087,0.0892,0.0873,0.082,0.0828,0.0761,0.0706,0.0694,0.0672,0.0624,0.0577,0.0547,0.0444,0.0488,0.0388,0.0374,0.052,0.0519,0.0517,0.0516,0,0,0.0831,0.086,0.0807,0.0781,0.0764,0.0681,0.073,0.0727,0.0679,0.068,0.0653,0.0621,0.0572,0.0588,0.0606,0.0584,0.0515,0.051,0.0487,0.0485,0.0482,0.0388,0.0376,0.0513,0.0513,0.0512,0.0512,0,0.0809,0.0786,0.0818,0.0782,0.0683,0.067,0.0666,0.0605,0.06,0.0624,0.0583,0.0537,0.0537,0.0503,0.0504,0.0566,0.0441,0.0554,0.0564,0.0478,0.0477,0.0476,0.0385,0.0375,0.0509,0.0509,0.0509,0,0.0799,0.0747,0.079,0.0759,0.0699,0.0722,0.0639,0.056,0.0604,0.0499,0.051,0.047,0.0457,0.0459,0.0451,0.0393,0.034,0.0376,0.0384,0.0387,0.0295,0.0296,0.0297,0.0275,0.0275,0.0274,0,0,0.0767,0.078,0.0779,0.0768,0.0755,0.0673,0.0618,0.057,0.0531,0.0501,0.0456,0.0418,0.0439,0.0399,0.0401,0.0364,0.0294,0.0349,0.036,0.0369,0.0378,0.0289,0.0291,0.0272,0.0272,0.0272,0,0,0.076,0.0779,0.077,0.0786,0.0745,0.0661,0.0586,0.0551,0.0503,0.0469,0.0425,0.0413,0.0431,0.0369,0.035,0.0331,0.0286,0.0289,0.0349,0.0362,0.0373,0.039,0.0257,0,0,0,0,0,0.0779,0.0793,0.0787,0.0782,0.0726,0.0684,0.0659,0.0556,0.0507,0.0491,0.0462,0.039,0.0362,0.0344,0.0328,0.0317,0.0241,0.0247,0.0252,0.0327,0.0342,0.0354,0,0,0,0,0,0,0.0778,0.0785,0.0782,0.0721,0.0702,0.0684,0.0618,0.059,0.0508,0.0497,0.0401,0.0388,0.0346,0.0345,0.0332,0.0323,0.0261,0.0243,0.0248,0.0252,0.0332,0.0344,0.0354,0,0,0,0,0,0.0776,0.0781,0.0751,0.0713,0.0698,0.0563,0.0619,0.0594,0.0527,0.0444,0.0426,0.0451,0.0348,0.0333,0.0337,0.0331,0.0269,0.0265,0.0246,0.025,0.0253,0.0338,0,0,0,0,0,0,0.0774,0.0732,0.0741,0.0725,0.0714,0.0559,0.0548,0.0599,0.0478,0.0457,0.0496,0.049,0.0349,0.0337,0.0326,0.0338,0.0276,0.0271,0.0268,0.0249,0.0252,0.0254,0,0,0,0,0,0,0.0726,0.0722,0.0733,0.0741,0.0726,0.0556,0.0547,0.0505,0.0481,0.0538,0.0528,0.0495,0.0385,0.034,0.0331,0.0265,0.0281,0.0277,0.0274,0.0272,0.0251,0.0254,0,0,0,0,0,0,0.0719,0.0715,0.0745,0.0733,0.0719,0.0537,0.0514,0.0478,0.0441,0.0548,0.0439,0.0439,0.0391,0.0379,0.0335,0.0273,0.0267,0.0281,0.0278,0.0276,0.0274,0,0,0,0,0,0,0,0.0713,0.0808,0.0831,0.0726,0.0714,0.0579,0.0575,0.0571,0.0441,0.044,0.044,0.0439,0.0305,0.0301,0.0296,0.028,0,0,0.0281,0.0279,0,0,0,0,0,0,0,0,0.0803,0.0807,0.083,0.0827,0.0823,0.0578,0.0575,0.0572,0.0441,0.044,0.044,0.0439,0.0304,0.03,0.0296,0,0,0,0,0,0,0,0,0,0,0,0,0,0,0,0.083,0.0827,0,0.0578,0.0575,0.0572,0.0441,0.044,0.044,0.0439,0.0303,0.03,0.0297,0,0,0,0,0,0,0,0,0,0,0,0,0,0,0,0,0,0,0,0,0,0,0,0,0,0,0,0,0,0,0,0,0,0,0,0,0,0,0,0,0,0,0,0,0,0,0,0,0,0,0,0,0,0,0,0,0,0,0,0,0,0,0,0,0,0,0,0,0]}]],[[{"header":{"parameterUnit":"kt","parameterCategory":2,"dx":1,"dy":1,"la1":30.253999710083008,"la2":30.299108505249023,"lo1":-89.0895004272461,"lo2":-89.04439544677734,"nx":28,"ny":28,"refTime":"2022-10-29T21:00:00:Z","depth":"4","parameterNumber":2,"parameterNumberName":"U-component_of_CURRENTS"},"data":[0.1548,0.1625,0.172,0.1747,0.1815,0.1963,0.2156,0.2455,0.2538,0.3014,0.3178,0.3551,0.3854,0.4082,0.4205,0.427,0.4165,0.4845,0.4835,0.483,0.4853,0.4874,0.4637,0,0,0,0,0,0.1632,0.1681,0.1793,0.1921,0.2073,0.2191,0.2495,0.2705,0.3152,0.3266,0.3556,0.3809,0.4097,0.4309,0.4284,0.462,0.4757,0.4564,0.4533,0.4844,0.4871,0.4631,0,0,0,0,0,0,0.1761,0.179,0.1982,0.2118,0.229,0.2409,0.2575,0.2854,0.3105,0.3731,0.3805,0.4274,0.4659,0.4742,0.4827,0.4876,0.4777,0.4577,0.4615,0.4643,0.4409,0.423,0.4153,0,0,0,0,0,0.1903,0.203,0.2137,0.2318,0.2487,0.2652,0.2923,0.3052,0.3536,0.3905,0.4207,0.4419,0.4717,0.4899,0.5036,0.5036,0.523,0.5162,0.5172,0.4956,0.4866,0.4811,0.4801,0.497,0.4973,0.4975,0.4976,0,0.2095,0.2162,0.2424,0.2513,0.2643,0.2873,0.3042,0.3438,0.3636,0.4205,0.4296,0.4738,0.4968,0.5067,0.5264,0.5341,0.525,0.5233,0.5002,0.4906,0.4848,0.4831,0.4812,0.4997,0.4996,0.4994,0.4992,0,0.2203,0.2388,0.2487,0.2772,0.2864,0.2967,0.3323,0.351,0.3897,0.4199,0.4337,0.4763,0.5026,0.5221,0.5425,0.5289,0.5311,0.5245,0.5416,0.5372,0.4866,0.4838,0.5032,0.5024,0.5018,0.5012,0.5008,0,0.2407,0.2471,0.2748,0.2794,0.2929,0.3135,0.3358,0.3554,0.3919,0.4143,0.4446,0.4637,0.4921,0.5108,0.5134,0.5161,0.536,0.4999,0.4959,0.5076,0.505,0.5047,0.5014,0.5309,0.5308,0.5306,0.5304,0,0.2482,0.2671,0.2772,0.2827,0.3047,0.3164,0.3307,0.361,0.3781,0.4154,0.4347,0.4619,0.4809,0.4915,0.5032,0.4969,0.5258,0.5147,0.4923,0.4903,0.5024,0.4995,0.5302,0.5302,0.5302,0.5301,0.53,0,0.2602,0.2701,0.2829,0.2985,0.3035,0.3138,0.3387,0.3524,0.3842,0.4009,0.4262,0.4386,0.4625,0.4555,0.482,0.4745,0.4787,0.4809,0.4816,0.4532,0.4378,0.4587,0.4829,0.4825,0.4821,0.4817,0.4813,0,0.2603,0.2735,0.2824,0.2944,0.301,0.3146,0.3281,0.3453,0.3632,0.3843,0.3989,0.4184,0.4187,0.4304,0.441,0.4493,0.4595,0.4448,0.4597,0.4601,0.4337,0.4501,0.4527,0.4756,0.4764,0.4769,0.4773,0,0.2577,0.2756,0.2781,0.2836,0.2986,0.3037,0.3199,0.3358,0.3504,0.3662,0.3847,0.401,0.4111,0.4165,0.4198,0.4291,0.4502,0.4276,0.4278,0.4364,0.4747,0.4465,0.4472,0.4496,0.4502,0.4507,0.4733,0,0.2635,0.2707,0.2758,0.2856,0.2934,0.3014,0.3118,0.3232,0.3336,0.3427,0.3643,0.3714,0.3875,0.3905,0.3915,0.4117,0.4109,0.4048,0.4,0.4139,0.4213,0.4244,0.3829,0.3826,0.3824,0.3822,0,0,0.2575,0.2627,0.2688,0.2763,0.2831,0.2915,0.2984,0.3056,0.3179,0.327,0.3287,0.3526,0.3575,0.3738,0.3803,0.3797,0.3858,0.3848,0.4049,0.4074,0.4098,0.4176,0.4209,0.3818,0.3817,0.3817,0.3816,0,0.2552,0.2603,0.2655,0.2716,0.2842,0.2877,0.292,0.3012,0.3078,0.3205,0.3239,0.3369,0.35,0.3565,0.3609,0.3753,0.3788,0.3791,0.3928,0.4025,0.4053,0.4078,0.4161,0.4193,0.381,0.3811,0.3811,0,0.2512,0.2559,0.2582,0.266,0.2727,0.2797,0.2808,0.2915,0.298,0.2998,0.3144,0.3212,0.327,0.3408,0.3479,0.3448,0.3714,0.3614,0.3626,0.3662,0.376,0.3791,0.382,0.3458,0.3457,0.3457,0,0,0.2499,0.2537,0.2602,0.2655,0.2705,0.2769,0.2827,0.2871,0.2942,0.2982,0.3061,0.3147,0.323,0.3301,0.3367,0.3486,0.3515,0.3574,0.3591,0.3604,0.3648,0.3749,0.3779,0.3453,0.3453,0.3453,0,0,0.2485,0.2544,0.2568,0.2625,0.2695,0.2745,0.2829,0.2855,0.2937,0.2978,0.3021,0.3047,0.32,0.3213,0.3164,0.3387,0.3312,0.3324,0.3401,0.3422,0.3438,0.3476,0.3165,0,0,0,0,0,0.2489,0.2528,0.2549,0.257,0.2652,0.2722,0.2738,0.2822,0.2851,0.2891,0.2966,0.2988,0.3198,0.3155,0.3175,0.3292,0.3412,0.3419,0.3426,0.3552,0.3574,0.3592,0,0,0,0,0,0,0.2497,0.2511,0.2551,0.2593,0.2618,0.2717,0.2728,0.2748,0.285,0.286,0.2967,0.2987,0.3013,0.3147,0.3165,0.3276,0.3159,0.3415,0.3421,0.3427,0.356,0.3578,0.3593,0,0,0,0,0,0.2504,0.2516,0.2621,0.2595,0.2616,0.2737,0.2728,0.2745,0.2818,0.2904,0.2927,0.2896,0.3009,0.3033,0.3158,0.3268,0.3147,0.3153,0.3419,0.3424,0.3428,0.3569,0,0,0,0,0,0,0.2509,0.2503,0.2628,0.2641,0.2618,0.2736,0.275,0.2743,0.2856,0.2881,0.283,0.2836,0.3006,0.3025,0.3043,0.3266,0.3137,0.3143,0.3148,0.3422,0.3426,0.343,0,0,0,0,0,0,0.25,0.251,0.2633,0.2657,0.2671,0.2734,0.2747,0.2809,0.2858,0.2771,0.2782,0.2832,0.3019,0.3019,0.3034,0.3123,0.3129,0.3136,0.314,0.3143,0.3426,0.3429,0,0,0,0,0,0,0.2507,0.2516,0.2652,0.2663,0.2676,0.2802,0.2793,0.2884,0.2847,0.2763,0.2854,0.2857,0.3015,0.3028,0.3027,0.3109,0.3119,0.3129,0.3134,0.3137,0.3139,0,0,0,0,0,0,0,0.2513,0.2418,0.2582,0.2669,0.268,0.276,0.276,0.2761,0.2848,0.285,0.2853,0.2855,0.3093,0.31,0.3107,0.3098,0,0,0.3129,0.3132,0,0,0,0,0,0,0,0,0.2418,0.2418,0.2583,0.2587,0.2591,0.276,0.276,0.2761,0.2848,0.285,0.2852,0.2854,0.3095,0.31,0.3106,0,0,0,0,0,0,0,0,0,0,0,0,0,0,0,0.2583,0.2587,0,0.276,0.276,0.2761,0.2848,0.285,0.2852,0.2854,0.3096,0.3101,0.3106,0,0,0,0,0,0,0,0,0,0,0,0,0,0,0,0,0,0,0,0,0,0,0,0,0,0,0,0,0,0,0,0,0,0,0,0,0,0,0,0,0,0,0,0,0,0,0,0,0,0,0,0,0,0,0,0,0,0,0,0,0,0,0,0,0,0,0,0,0]}],[{"header":{"parameterUnit":"kt","parameterCategory":2,"dx":1,"dy":1,"la1":30.253999710083008,"la2":30.299108505249023,"lo1":-89.0895004272461,"lo2":-89.04439544677734,"nx":28,"ny":28,"refTime":"2022-10-29T21:00:00:Z","depth":"4","parameterNumber":3,"parameterNumberName":"V-component_of_CURRENTS"},"data":[0.1576,0.1719,0.1781,0.1982,0.211,0.2324,0.2452,0.2492,0.2408,0.2384,0.2012,0.1879,0.1197,0.1555,0.0542,0.0411,0.0331,-0.0429,-0.0438,-0.0498,-0.048,-0.0464,-0.0296,0,0,0,0,0,0.1561,0.1644,0.1797,0.1964,0.2168,0.2273,0.2453,0.253,0.2575,0.245,0.2409,0.1985,0.1311,0.1,0.0555,0.0413,-0.0069,-0.0121,-0.0159,-0.0486,-0.0467,-0.031,0,0,0,0,0,0,0.1518,0.1601,0.1754,0.191,0.2103,0.2263,0.2362,0.2415,0.249,0.2425,0.2333,0.1885,0.1635,0.096,0.0516,0.009,0.0015,-0.006,-0.0064,-0.005,0.0132,0.026,0.0006,0,0,0,0,0,0.1453,0.154,0.1661,0.1835,0.1984,0.2171,0.2322,0.2392,0.2469,0.2484,0.2283,0.1924,0.1472,0.0945,0.0459,0.0052,-0.0116,-0.0304,-0.0294,-0.0181,-0.0119,-0.0155,-0.0122,-0.0391,-0.0389,-0.0387,-0.0386,0,0.1384,0.1467,0.165,0.174,0.1816,0.1988,0.2106,0.2203,0.2288,0.2251,0.224,0.1921,0.1714,0.0992,0.0597,0.0003,-0.0064,-0.0252,-0.013,-0.0084,-0.0132,-0.0102,-0.0074,-0.037,-0.0372,-0.0373,-0.0374,0,0.1347,0.1408,0.1538,0.1667,0.1715,0.1825,0.2008,0.2106,0.2122,0.2181,0.2167,0.1945,0.1572,0.1203,0.0741,0.0516,0.0136,-0.0018,0.0271,0.0216,-0.0058,-0.0036,-0.0344,-0.035,-0.0355,-0.0359,-0.0363,0,0.1297,0.1373,0.1481,0.1549,0.1677,0.1712,0.1863,0.1883,0.193,0.199,0.1852,0.1799,0.148,0.1211,0.0934,0.0526,0.0542,0.0275,0.0194,0.0466,0.0484,0.0389,0.0401,0.0313,0.0316,0.0318,0.032,0,0.1252,0.1329,0.1438,0.1467,0.1559,0.1625,0.1685,0.1722,0.1794,0.1756,0.1763,0.1588,0.1506,0.1246,0.0944,0.0981,0.0566,0.0573,0.0297,0.0288,0.0407,0.0414,0.0323,0.0323,0.0324,0.0325,0.0325,0,0.1206,0.1259,0.1365,0.145,0.1475,0.1532,0.1627,0.167,0.1658,0.166,0.1604,0.1522,0.1393,0.1334,0.1025,0.1119,0.0925,0.0776,0.076,0.0618,0.0562,0.0567,0.0556,0.0559,0.0562,0.0565,0.0568,0,0.1166,0.1248,0.126,0.1348,0.1395,0.141,0.1458,0.1485,0.1498,0.1503,0.1413,0.1402,0.134,0.1324,0.1215,0.1048,0.0927,0.1065,0.0703,0.0692,0.0597,0.0558,0.0924,0.0612,0.0606,0.0602,0.0599,0,0.1126,0.1188,0.1194,0.1233,0.1257,0.1295,0.1341,0.1374,0.1409,0.1384,0.1387,0.1345,0.1293,0.1261,0.1199,0.11,0.0981,0.1034,0.1025,0.0894,0.0707,0.062,0.0585,0.0939,0.0936,0.0934,0.063,0,0.1099,0.1131,0.1156,0.1185,0.1207,0.1242,0.125,0.128,0.1284,0.127,0.1265,0.1206,0.1166,0.1151,0.1121,0.1063,0.1009,0.098,0.0903,0.0941,0.0804,0.0781,0.1023,0.102,0.1019,0.1017,0,0,0.1036,0.1082,0.1082,0.1104,0.112,0.1104,0.1139,0.1147,0.1145,0.1152,0.1137,0.109,0.1043,0.1016,0.1046,0.103,0.0942,0.1003,0.095,0.0943,0.0936,0.0808,0.0788,0.1014,0.1013,0.1013,0.1012,0,0.102,0.1042,0.1073,0.1078,0.108,0.1078,0.1087,0.1083,0.1086,0.111,0.1058,0.1033,0.1016,0.0969,0.0944,0.1009,0.0877,0.1008,0.1056,0.0938,0.0934,0.093,0.0804,0.0787,0.1008,0.1008,0.1008,0,0.0973,0.0977,0.0997,0.1011,0.1012,0.1033,0.0986,0.1004,0.1023,0.0948,0.0976,0.094,0.0888,0.0896,0.0891,0.0859,0.0803,0.0863,0.0872,0.0858,0.0731,0.0728,0.0726,0.0744,0.0744,0.0743,0,0,0.0949,0.098,0.0971,0.1004,0.1009,0.0988,0.0987,0.0974,0.0964,0.0961,0.0927,0.0896,0.0874,0.0856,0.0834,0.0837,0.0739,0.0834,0.0846,0.0857,0.0849,0.0726,0.0725,0.0741,0.0741,0.0741,0,0,0.0933,0.094,0.0931,0.0969,0.0966,0.0947,0.0961,0.0939,0.0936,0.0936,0.087,0.0858,0.0861,0.0819,0.08,0.0798,0.0744,0.0747,0.0827,0.0841,0.0853,0.085,0.0711,0,0,0,0,0,0.0904,0.0941,0.0934,0.0937,0.0947,0.0955,0.0954,0.0927,0.0907,0.0922,0.09,0.0835,0.0804,0.0787,0.0775,0.0783,0.0713,0.0718,0.0723,0.0826,0.0842,0.0856,0,0,0,0,0,0,0.0905,0.0912,0.0932,0.0918,0.0919,0.0954,0.0913,0.0906,0.0904,0.09,0.0846,0.0833,0.0788,0.0787,0.0777,0.0787,0.0714,0.0715,0.0719,0.0723,0.0831,0.0845,0.0856,0,0,0,0,0,0.0906,0.0911,0.0942,0.0916,0.0917,0.0887,0.0912,0.0906,0.0909,0.0843,0.0831,0.0888,0.079,0.0778,0.0781,0.0793,0.072,0.0717,0.0718,0.0721,0.0724,0.0838,0,0,0,0,0,0,0.0906,0.0906,0.0941,0.0938,0.0903,0.0885,0.0884,0.0906,0.0851,0.0841,0.088,0.0877,0.0792,0.0782,0.0773,0.0799,0.0725,0.0722,0.0719,0.072,0.0723,0.0725,0,0,0,0,0,0,0.0902,0.0905,0.094,0.0925,0.0921,0.0882,0.0882,0.0853,0.0848,0.0891,0.0887,0.0879,0.0783,0.0785,0.0778,0.0735,0.0729,0.0725,0.0723,0.0722,0.0722,0.0724,0,0,0,0,0,0,0.0902,0.0904,0.0925,0.0922,0.0919,0.0894,0.0853,0.0854,0.0873,0.0892,0.0869,0.0867,0.0786,0.0779,0.0781,0.0742,0.0737,0.0728,0.0726,0.0725,0.0724,0,0,0,0,0,0,0,0.0902,0.0902,0.095,0.092,0.0917,0.0916,0.0916,0.0916,0.0872,0.0871,0.0869,0.0868,0.0747,0.0743,0.074,0.0748,0,0,0.0729,0.0727,0,0,0,0,0,0,0,0,0.0899,0.0901,0.095,0.0949,0.0948,0.0916,0.0916,0.0916,0.0872,0.0871,0.087,0.0868,0.0746,0.0743,0.074,0,0,0,0,0,0,0,0,0,0,0,0,0,0,0,0.095,0.0949,0,0.0916,0.0916,0.0916,0.0872,0.0871,0.087,0.0869,0.0745,0.0743,0.074,0,0,0,0,0,0,0,0,0,0,0,0,0,0,0,0,0,0,0,0,0,0,0,0,0,0,0,0,0,0,0,0,0,0,0,0,0,0,0,0,0,0,0,0,0,0,0,0,0,0,0,0,0,0,0,0,0,0,0,0,0,0,0,0,0,0,0,0,0]}]]]